Location: Newark
(47.5833°N, 8.1500°E)
Time: 15:20:30
(UTC+00:00)

Tiros 1 - Pass Details

Date: 28 October 2020
Orbit: 630 x 664 km, 48.4° (Epoch: 29 November)

Event Time Altitude Azimuth Distance (km) Brightness Sun altitude
Exits shadow 02:34:09 16° 99° (E) 1,643 9.7 -35.8°
Drops below altitude 10° 02:35:23 10° 88° (E) 2,008 10.4 -35.6°
Sets 02:38:00 0° 75° (ENE) 2,918 11.5 -35.2°
